LIBPLIRA

Guest
Details From LIBP - PESCARA
To LIRA - CIAMPINO
Flight Number -
Tags generated
Created
Modified
Stats Distance 80 nm / 149 km
Max Altitude 5,000 ft / 1,524 m
Waypoints 3
Social Downloads 1
Likes 0
Share VATSIM

Download

Looking for another format? Having issues loading an existing format? Contact us
Advertisement - Login to hide

Notes

Basic altitude profile: - Ascent Rate: 2500ft/min - Ascent Speed: 250kts - Cruise Altitude: 35000ft - Cruise Speed: 420kts - Descent Rate: 1500ft/min - Descent Speed: 250kts Options: - Use NATs: yes - Use PACOTS: yes - Use low airways: yes - Use high airways: yes

Route

LIBP LANNO LIRA

ID Type Via Altitude Latitude Longitude Leg Dist Tot Dist Heading (true) Name
O LIBP APT - 0 ft / 0 m 42.43126˚ 14.18303˚ - 0 nm - PESCARA
LANNO FIX - 5,000 ft / 1,524 m 42.34194˚ 13.88833˚ 14 nm 14 nm 248° / 248° -
O LIRA APT - 0 ft / 0 m 41.79923˚ 12.59492˚ 66 nm 80 nm 241° / 240° CIAMPINO

Altitude Profile

Advertisement - Login to hide

LIBP

Details ICAO LIBP (PSR)
Name PESCARA
Region Italy
Timezone Europe/Rome (UTC+2.0)
Stats Elevation 48 ft / 15 m (AMSL)
Location 42.431257° 14.183030°
Runways 1
Magnetic Variation 3.427° E

METAR

LIBP 221150Z 02006KT 330V060 9999 FEW020TCU SCT050 22/19 Q1014

Decode

TAF

TAF LIBP 221100Z 2212/2312 03010KT 9999 SCT050 TEMPO 2212/2218 TSRA BECMG 2215/2218 VRB05KT

Decode

Departure Runways

ID Width Length Bearing (true) Bearing (mag) Surface Threshold Offset Overrun Length
04 148 ft / 45 m 7,943 ft / 2,421 m 37.19° 33.76° Asphalt 344 ft / 105 m 0 ft / 0 m
22 148 ft / 45 m 7,943 ft / 2,421 m 217.21° 213.78° Asphalt 617 ft / 188 m 0 ft / 0 m

LIRA

Details ICAO LIRA (CIA)
Name CIAMPINO
Region Italy
Timezone Europe/Rome (UTC+2.0)
Stats Elevation 427 ft / 130 m (AMSL)
Location 41.799228° 12.594917°
Runways 1
Magnetic Variation 3.103° E

METAR

LIRA 221220Z 18010KT 9999 FEW020 SCT040 23/14 Q1014

Decode

TAF

TAF LIRA 221100Z 2212/2312 23010KT 9999 SCT030 TEMPO 2212/2216 SHRA BECMG 2216/2218 VRB05KT TEMPO 2303/2312 SHRA

Decode

Destination Runways

ID Width Length Bearing (true) Bearing (mag) Surface Threshold Offset Overrun Length
15 154 ft / 47 m 7,246 ft / 2,209 m 152.79° 149.69° Asphalt 0 ft / 0 m 0 ft / 0 m
33 154 ft / 47 m 7,246 ft / 2,209 m 332.80° 329.70° Asphalt 0 ft / 0 m 0 ft / 0 m

Approach Navaids

Runway Type Ident Frequency Range Bearing (true) Bearing (mag) Slope Elevation
15 Localiser CIA 109.90 MHz 18 nm / 33 km 152.81° 149.71° - 426 ft / 130 m (AMSL)
15 Glidescope CIA 109.90 MHz 10 nm / 19 km 152.79° 149.69° 3.00° 384 ft / 117 m (AMSL)

Popular Alternatives